Location: Sternwarte ZA, Rosenfeld-Brittheim
(48.2889°N, 8.6789°E)
Time: 21:12:30
(UTC+02:00)

N. Korean satellite - Visible Passes

Search period start: 24 September 2021 00:00
Search period end: 04 October 2021 00:00
Orbit: 448 x 498 km, 97.3° (Epoch: 23 September)

Date Brightness Start Highest point End Pass type
(mag) Time Alt. Az. Time Alt. Az. Time Alt. Az.
24 Sep 9.4 06:00:19 10° NE 06:03:06 21° E 06:05:53 10° SE visible
25 Sep 10.2 05:34:14 10° ENE 05:35:04 11° E 05:35:55 10° ESE visible
26 Sep 7.3 06:37:23 10° NNE 06:40:54 59° E 06:44:27 10° S visible
27 Sep 8.9 06:09:54 10° NE 06:13:00 27° E 06:16:08 10° SSE visible
28 Sep 9.9 05:43:03 10° ENE 05:45:01 14° E 05:46:57 10° ESE visible
29 Sep 6.8 06:47:08 10° NNE 06:50:43 79° ESE 06:54:19 10° S visible
30 Sep 8.4 06:19:30 10° NNE 06:22:50 35° E 06:26:11 10° SSE visible
01 Oct 9.7 05:52:18 10° NE 05:54:50 18° E 05:57:22 10° SE visible
02 Oct 6.5 06:56:49 10° N 07:00:25 79° WNW 07:04:03 10° SSW visible
03 Oct 7.8 06:29:02 10° NNE 06:32:33 47° E 06:36:04 10° S visible
